This is the latest recevied weather packets stored in our database for station/object W8RSN-13. If no packets are shown the sender has not sent any weather packets the latest 10 day(s).
| Time | Temp. | Humidity | Pressure | Rain* | Wind** | Luminosity | Snow |
|---|---|---|---|---|---|---|---|
| 1788234573 | 23.33° C | 55% | 1015.2 hPa | - | - | - | - |
| 1788234271 | 23.33° C | 55% | 1015.2 hPa | - | - | - | - |
| 1788233971 | 23.33° C | 54% | 1015.1 hPa | - | - | - | - |
| 1788233670 | 23.89° C | 52% | 1015 hPa | - | - | - | - |
| 1788233369 | 23.89° C | 51% | 1014.9 hPa | - | - | - | - |
| 1788233068 | 23.89° C | 51% | 1014.8 hPa | - | - | - | - |
| 1788232774 | 23.89° C | 51% | 1014.7 hPa | - | - | - | - |
| 1788232466 | 23.89° C | 51% | 1014.5 hPa | - | - | - | - |
| 1788232166 | 24.44° C | 51% | 1014.6 hPa | - | - | - | - |
| 1788231865 | 24.44° C | 50% | 1014.6 hPa | - | - | - | - |
| 1788231564 | 24.44° C | 49% | 1014.4 hPa | - | - | - | - |
| 1788231263 | 24.44° C | 50% | 1014.3 hPa | - | - | - | - |
| 1788230962 | 24.44° C | 50% | 1014.3 hPa | - | - | - | - |
| 1788230661 | 25° C | 50% | 1014 hPa | - | - | - | - |
| 1788230360 | 25° C | 50% | 1014 hPa | - | - | - | - |
| 1788230059 | 25.56° C | 49% | 1014.1 hPa | - | - | - | - |
| 1788229759 | 25.56° C | 48% | 1014.1 hPa | - | - | - | - |
| 1788229458 | 26.11° C | 47% | 1014 hPa | - | - | - | - |
| 1788229157 | 26.67° C | 46% | 1014.1 hPa | - | - | - | - |
| 1788228856 | 27.22° C | 44% | 1013.6 hPa | - | - | - | - |
| 1788228575 | 27.78° C | 41% | 1013.6 hPa | - | - | - | - |
| 1788228274 | 27.78° C | 38% | 1013.6 hPa | - | - | - | - |
| 1788227973 | 28.33° C | 37% | 1013.4 hPa | - | - | - | - |
| 1788227672 | 28.89° C | 33% | 1013.4 hPa | - | - | - | - |
| 1788227371 | 29.44° C | 34% | 1013.6 hPa | - | - | - | - |
* Rain since midnight (hover to see other rain measurements)
** Current wind speed in m/s (hover to see current wind gust speed)